[[{"header":{"parameterUnit":"m.s-1","parameterCategory":1,"la1":30.2991,"la2":30.254,"lo1":-89.0895,"lo2":-89.0444,"dy":0.0017,"dx":0.0017,"nx":28,"ny":28,"refTime":"2025-11-24T09:00:00:Z","depth":0,"parameterNumber":2,"parameterNumberName":"U-component_of_WINDS"},"data":[0,0,0,0,0,0,0,0,0,0,0,0,0,0,0,0,0,0,0,0,0,0,0,0,0,0,0,0,0,0,0,0,0,0,0,0,0,0,0,0,0,0,0,0,0,0,0,0,0,0,0,0,0,0,0,0,0,0,-2.0728,-2.0728,0,-2.0701,-2.0701,-2.07,-2.0593,-2.059,-2.0588,-2.0586,-2.0561,-2.0563,-2.0564,0,0,0,0,0,0,0,0,0,0,0,0,0,-2.0689,-2.069,-2.0728,-2.0728,-2.0727,-2.0701,-2.0701,-2.07,-2.0593,-2.059,-2.0587,-2.0584,-2.0561,-2.0563,-2.0565,0,0,0,0,0,0,0,0,0,0,0,0,0,-2.0688,-2.069,-2.0728,-2.0671,-2.0665,-2.0701,-2.0701,-2.07,-2.0594,-2.059,-2.0587,-2.0583,-2.056,-2.0562,-2.0565,-2.0655,0,0,-2.0572,-2.0574,0,0,0,0,0,0,0,0,-2.0688,-2.069,-2.068,-2.0675,-2.0669,-2.0646,-2.0678,-2.0685,-2.0595,-2.0621,-2.0586,-2.0581,-2.0593,-2.0592,-2.0595,-2.0654,-2.0653,-2.0573,-2.0574,-2.0575,-2.0576,0,0,0,0,0,0,0,-2.0689,-2.069,-2.0717,-2.068,-2.0673,-2.0647,-2.0643,-2.0679,-2.0628,-2.0619,-2.0611,-2.0609,-2.0589,-2.0593,-2.0594,-2.0652,-2.0573,-2.0575,-2.0576,-2.0577,-2.0781,-2.0785,0,0,0,0,0,0,-2.0696,-2.0691,-2.0718,-2.0717,-2.0669,-2.0651,-2.0646,-2.0657,-2.0628,-2.0619,-2.0612,-2.0604,-2.0591,-2.0591,-2.0593,-2.0695,-2.0575,-2.0578,-2.0579,-2.0777,-2.0782,-2.0786,0,0,0,0,0,0,-2.0696,-2.07,-2.0719,-2.0702,-2.0702,-2.0655,-2.0669,-2.0659,-2.0663,-2.0623,-2.0613,-2.0626,-2.0588,-2.0589,-2.064,-2.0693,-2.0579,-2.0581,-2.0772,-2.0778,-2.0784,-2.0901,0,0,0,0,0,0,-2.0695,-2.07,-2.0734,-2.0703,-2.0704,-2.0767,-2.0672,-2.0661,-2.0667,-2.0656,-2.0633,-2.0625,-2.0585,-2.0636,-2.0642,-2.0694,-2.0583,-2.0767,-2.0775,-2.0782,-2.0892,-2.091,-2.0925,0,0,0,0,0,-2.0694,-2.0769,-2.0736,-2.074,-2.0744,-2.077,-2.077,-2.0721,-2.0672,-2.0705,-2.0679,-2.0626,-2.0686,-2.0642,-2.0648,-2.0701,-2.0764,-2.0773,-2.0781,-2.0885,-2.0906,-2.0925,0,0,0,0,0,0,-2.0809,-2.0764,-2.0727,-2.0794,-2.0786,-2.0751,-2.0792,-2.0746,-2.0753,-2.0743,-2.0683,-2.0679,-2.0738,-2.0724,-2.0677,-2.0786,-2.0716,-2.0726,-2.0792,-2.0813,-2.0829,-2.0831,-2.0585,0,0,0,0,0,-2.0842,-2.0865,-2.0825,-2.0888,-2.0886,-2.084,-2.0849,-2.0812,-2.0802,-2.0799,-2.0776,-2.077,-2.0786,-2.0799,-2.0812,-2.0889,-2.0882,-2.0929,-2.0946,-2.0959,-2.0969,-2.1007,-2.1027,-2.0815,-2.0815,-2.0815,0,0,-2.091,-2.0889,-2.0907,-2.091,-2.09,-2.0926,-2.0838,-2.087,-2.0888,-2.0804,-2.0849,-2.0833,-2.0821,-2.0885,-2.0911,-2.0875,-2.1026,-2.0971,-2.0982,-2.0984,-2.1018,-2.1038,-2.1056,-2.0821,-2.082,-2.0819,0,0,-2.1048,-2.1034,-2.1084,-2.1075,-2.106,-2.1028,-2.1041,-2.1012,-2.0997,-2.1042,-2.0978,-2.1,-2.1031,-2.1025,-2.1026,-2.1159,-2.111,-2.1165,-2.1252,-2.129,-2.1307,-2.1321,-2.1368,-2.1386,-2.1175,-2.1175,-2.1175,0,-2.1135,-2.1171,-2.1116,-2.1151,-2.1154,-2.1077,-2.1127,-2.1121,-2.1112,-2.1116,-2.1075,-2.1111,-2.1098,-2.1158,-2.1191,-2.1194,-2.1206,-2.1168,-2.1309,-2.1323,-2.1336,-2.1379,-2.1397,-2.1182,-2.1181,-2.1181,-2.118,0,-2.1278,-2.1304,-2.1346,-2.1337,-2.1345,-2.1388,-2.1339,-2.1354,-2.1316,-2.1289,-2.1335,-2.1316,-2.1323,-2.1335,-2.1299,-2.139,-2.1368,-2.1319,-2.1247,-2.1363,-2.1403,-2.142,-2.1192,-2.1189,-2.1187,-2.1186,0,0,-2.1489,-2.1447,-2.1463,-2.1457,-2.1434,-2.1453,-2.1492,-2.1498,-2.1511,-2.1507,-2.1538,-2.1565,-2.1519,-2.152,-2.1483,-2.1516,-2.1622,-2.1463,-2.1462,-2.1492,-2.1719,-2.1755,-2.1776,-2.1589,-2.1592,-2.1594,-2.172,0,-2.1619,-2.1681,-2.1632,-2.1704,-2.1726,-2.1653,-2.1687,-2.1676,-2.1652,-2.1668,-2.1641,-2.1661,-2.1599,-2.1599,-2.1629,-2.1603,-2.1666,-2.1593,-2.1617,-2.1619,-2.1621,-2.1797,-2.1835,-2.1954,-2.1735,-2.1738,-2.174,0,-2.1779,-2.178,-2.1854,-2.1823,-2.1831,-2.1862,-2.1863,-2.1879,-2.1866,-2.1845,-2.1846,-2.1799,-2.1835,-2.1765,-2.1813,-2.1765,-2.1771,-2.176,-2.1763,-2.1763,-2.1686,-2.1801,-2.1991,-2.2009,-2.1764,-2.1762,-2.176,0,-2.1923,-2.1943,-2.1989,-2.1987,-2.1953,-2.1977,-2.1964,-2.1947,-2.1953,-2.1954,-2.1957,-2.1963,-2.1966,-2.1972,-2.1927,-2.1881,-2.1981,-2.1908,-2.1965,-2.1967,-2.199,-2.1989,-2.2184,-2.1996,-2.1996,-2.1995,-2.1995,0,-2.2073,-2.2121,-2.2053,-2.2081,-2.2132,-2.2076,-2.2128,-2.2108,-2.2093,-2.2116,-2.2053,-2.2077,-2.2017,-2.2035,-2.2,-2.2045,-2.2047,-2.2032,-2.2022,-2.2037,-2.2039,-2.204,-2.2031,-2.2,-2.1999,-2.1998,-2.1997,0,-2.2243,-2.2199,-2.2244,-2.2208,-2.22,-2.2239,-2.2209,-2.2234,-2.2204,-2.2235,-2.2238,-2.2193,-2.221,-2.2166,-2.2178,-2.2154,-2.2218,-2.2196,-2.2222,-2.2215,-2.2275,-2.2269,-2.2477,-2.25,-2.2299,-2.2301,-2.2303,0,-2.2341,-2.2375,-2.2342,-2.2353,-2.2343,-2.2361,-2.2366,-2.2311,-2.2319,-2.2306,-2.2332,-2.2343,-2.2349,-2.238,-2.2348,-2.2356,-2.2333,-2.2405,-2.2333,-2.2347,-2.2332,-2.233,-2.2333,-2.2419,-2.2422,-2.2424,-2.2426,0,-2.2519,-2.2495,-2.2505,-2.2506,-2.2514,-2.2513,-2.2508,-2.252,-2.2462,-2.2474,-2.2489,-2.2494,-2.2504,-2.2516,-2.2516,-2.2503,-2.2455,-2.2448,-2.2462,-2.2477,-2.249,-2.2482,-2.2261,-2.2444,-2.2442,-2.244,-2.2439,-2.2439,-2.2655,-2.2681,-2.2662,-2.2674,-2.2664,-2.266,-2.2681,-2.2653,-2.2665,-2.2667,-2.2635,-2.2657,-2.2642,-2.2637,-2.2629,-2.2646,-2.2613,-2.2633,-2.2638,-2.2643,-2.2652,-2.2488,-2.2646,-2.2645,-2.2645,-2.2644,-2.2644,0,-2.2829,-2.2812,-2.2824,-2.2817,-2.2826,-2.2778,-2.277,-2.2781,-2.2801,-2.279,-2.2796,-2.2814,-2.2825,-2.2794,-2.28,-2.2819,-2.2797,-2.2822,-2.282,-2.2818,-2.2682,-2.2669,-2.284,-2.284,-2.284,-2.284,-2.284,-2.284,-2.292,-2.2962,-2.2936,-2.2972,-2.2954,-2.2974,-2.2973,-2.2969,-2.296,-2.2982,-2.299,-2.2969,-2.295,-2.2953,-2.2961,-2.2952,-2.2956,-2.299,-2.2973,-2.2847,-2.2827,-2.2809,-2.2797,-2.2992,-2.2992,-2.3106,-2.3107,-2.3108]},{"header":{"parameterUnit":"m.s-1","parameterCategory":1,"la1":30.2991,"la2":30.254,"lo1":-89.0895,"lo2":-89.0444,"dy":0.0017,"dx":0.0017,"nx":28,"ny":28,"refTime":"2025-11-24T09:00:00:Z","depth":0,"parameterNumber":3,"parameterNumberName":"V-component_of_WINDS"},"data":[0,0,0,0,0,0,0,0,0,0,0,0,0,0,0,0,0,0,0,0,0,0,0,0,0,0,0,0,0,0,0,0,0,0,0,0,0,0,0,0,0,0,0,0,0,0,0,0,0,0,0,0,0,0,0,0,0,0,-1.2288,-1.2288,0,-1.2328,-1.2329,-1.2329,-1.2347,-1.2347,-1.2347,-1.2347,-1.2386,-1.2387,-1.2389,0,0,0,0,0,0,0,0,0,0,0,0,0,-1.2224,-1.2225,-1.2288,-1.2288,-1.2289,-1.2328,-1.2329,-1.2329,-1.2347,-1.2347,-1.2347,-1.2347,-1.2386,-1.2387,-1.2389,0,0,0,0,0,0,0,0,0,0,0,0,0,-1.2256,-1.2225,-1.2288,-1.2303,-1.2304,-1.2328,-1.2329,-1.2329,-1.2347,-1.2347,-1.2347,-1.2347,-1.2386,-1.2387,-1.2389,-1.24,0,0,-1.2394,-1.2394,0,0,0,0,0,0,0,0,-1.2255,-1.2259,-1.23,-1.2302,-1.2304,-1.2333,-1.232,-1.2353,-1.2347,-1.2331,-1.2347,-1.2347,-1.2368,-1.2371,-1.2379,-1.2402,-1.2404,-1.2394,-1.2395,-1.2396,-1.2396,0,0,0,0,0,0,0,-1.2252,-1.2257,-1.2304,-1.2301,-1.2303,-1.2306,-1.2311,-1.2327,-1.2349,-1.2332,-1.2334,-1.2338,-1.2369,-1.2377,-1.238,-1.2404,-1.2394,-1.2395,-1.2396,-1.2397,-1.2437,-1.2437,0,0,0,0,0,0,-1.2248,-1.2255,-1.2303,-1.2305,-1.2279,-1.2308,-1.2313,-1.2323,-1.2349,-1.2353,-1.2338,-1.2339,-1.2375,-1.2378,-1.2382,-1.2396,-1.2396,-1.2397,-1.2398,-1.2437,-1.2437,-1.2437,0,0,0,0,0,0,-1.2246,-1.2252,-1.2301,-1.228,-1.2287,-1.2309,-1.2321,-1.2324,-1.2332,-1.2354,-1.2358,-1.2343,-1.2375,-1.2379,-1.2395,-1.2397,-1.2398,-1.2399,-1.2437,-1.2437,-1.2437,-1.2425,0,0,0,0,0,0,-1.2245,-1.2251,-1.2257,-1.228,-1.2288,-1.2315,-1.2321,-1.2325,-1.2335,-1.2337,-1.2359,-1.2363,-1.2375,-1.2393,-1.2397,-1.24,-1.2401,-1.2436,-1.2437,-1.2437,-1.2425,-1.2424,-1.2424,0,0,0,0,0,-1.2242,-1.2252,-1.2257,-1.2263,-1.2295,-1.2315,-1.2319,-1.2334,-1.2336,-1.234,-1.2354,-1.2362,-1.2396,-1.2394,-1.2399,-1.2402,-1.2436,-1.2437,-1.2437,-1.2425,-1.2425,-1.2424,0,0,0,0,0,0,-1.2227,-1.2255,-1.2261,-1.2279,-1.2294,-1.2318,-1.2325,-1.2333,-1.2348,-1.2348,-1.2365,-1.237,-1.2384,-1.2395,-1.2392,-1.2414,-1.2417,-1.2418,-1.2407,-1.2406,-1.2406,-1.2403,-1.2402,0,0,0,0,0,-1.2226,-1.224,-1.2264,-1.2277,-1.2284,-1.2303,-1.2312,-1.2322,-1.2339,-1.2345,-1.236,-1.2375,-1.2389,-1.2398,-1.2412,-1.2426,-1.2431,-1.2431,-1.243,-1.243,-1.2431,-1.2438,-1.2438,-1.2437,-1.2437,-1.2437,0,0,-1.2224,-1.224,-1.2249,-1.2274,-1.2287,-1.2301,-1.2309,-1.2323,-1.2333,-1.2347,-1.2363,-1.2374,-1.2392,-1.2407,-1.2414,-1.2416,-1.2432,-1.243,-1.2429,-1.2431,-1.2438,-1.2438,-1.2438,-1.2438,-1.2438,-1.2438,0,0,-1.2226,-1.2241,-1.2253,-1.2266,-1.2286,-1.2298,-1.2301,-1.2323,-1.2331,-1.2347,-1.2358,-1.2369,-1.2394,-1.2406,-1.2415,-1.242,-1.2427,-1.2424,-1.2421,-1.2428,-1.2428,-1.2428,-1.2429,-1.243,-1.2425,-1.2425,-1.2425,0,-1.222,-1.2242,-1.2258,-1.2271,-1.2282,-1.2296,-1.2307,-1.2319,-1.2342,-1.2348,-1.235,-1.238,-1.2393,-1.2411,-1.2412,-1.2419,-1.2422,-1.2422,-1.2427,-1.2427,-1.2427,-1.2429,-1.2429,-1.2424,-1.2424,-1.2424,-1.2424,0,-1.2234,-1.2248,-1.2256,-1.2278,-1.2289,-1.2302,-1.2318,-1.2327,-1.2336,-1.2347,-1.2363,-1.2379,-1.2396,-1.2401,-1.2409,-1.2418,-1.2419,-1.2424,-1.2427,-1.2427,-1.2428,-1.2429,-1.2423,-1.2424,-1.2424,-1.2424,0,0,-1.2229,-1.2259,-1.2262,-1.2271,-1.2294,-1.2305,-1.2317,-1.2334,-1.2341,-1.2356,-1.2366,-1.2386,-1.239,-1.24,-1.241,-1.2416,-1.2418,-1.242,-1.242,-1.2418,-1.2428,-1.2425,-1.2425,-1.2423,-1.2423,-1.2423,-1.2427,0,-1.2234,-1.2258,-1.2272,-1.229,-1.2303,-1.2315,-1.2325,-1.2339,-1.235,-1.2362,-1.2373,-1.2387,-1.2392,-1.2398,-1.2404,-1.2416,-1.242,-1.2416,-1.2432,-1.2432,-1.2427,-1.2426,-1.2422,-1.2425,-1.2427,-1.2427,-1.2428,0,-1.2244,-1.2259,-1.2278,-1.2298,-1.2304,-1.2313,-1.2329,-1.2341,-1.2356,-1.2363,-1.2374,-1.2384,-1.2396,-1.2398,-1.2415,-1.2412,-1.2418,-1.2425,-1.2426,-1.2428,-1.243,-1.2428,-1.2426,-1.2427,-1.2429,-1.2429,-1.2429,0,-1.2238,-1.2263,-1.2277,-1.2285,-1.2309,-1.2315,-1.2325,-1.234,-1.2349,-1.2363,-1.2369,-1.2383,-1.2391,-1.2402,-1.2415,-1.2415,-1.243,-1.2433,-1.2435,-1.2435,-1.2438,-1.2438,-1.2438,-1.2442,-1.2442,-1.2442,-1.2442,0,-1.2243,-1.2254,-1.2275,-1.2284,-1.2296,-1.2311,-1.2322,-1.2333,-1.2346,-1.2356,-1.2367,-1.2377,-1.2393,-1.2404,-1.2413,-1.2425,-1.2429,-1.2434,-1.2437,-1.2433,-1.2432,-1.2438,-1.2438,-1.2443,-1.2443,-1.2443,-1.2442,0,-1.2239,-1.2253,-1.227,-1.229,-1.2295,-1.2303,-1.232,-1.2329,-1.2339,-1.2352,-1.2356,-1.2372,-1.2386,-1.2399,-1.2417,-1.2423,-1.2434,-1.2438,-1.2429,-1.2431,-1.2432,-1.2432,-1.2436,-1.2437,-1.2441,-1.2441,-1.2441,0,-1.2241,-1.2249,-1.227,-1.2278,-1.2288,-1.2301,-1.231,-1.2324,-1.2333,-1.235,-1.2356,-1.237,-1.2382,-1.2402,-1.2416,-1.2429,-1.2433,-1.2433,-1.2435,-1.2431,-1.2432,-1.2431,-1.2432,-1.2433,-1.2432,-1.2432,-1.2432,0,-1.2242,-1.2249,-1.2262,-1.2277,-1.2288,-1.23,-1.2313,-1.2319,-1.2335,-1.2344,-1.2358,-1.2367,-1.2385,-1.2399,-1.2413,-1.2422,-1.243,-1.2431,-1.2433,-1.2429,-1.2424,-1.2426,-1.2428,-1.2431,-1.2432,-1.2432,-1.2432,-1.2432,-1.2241,-1.2249,-1.2265,-1.2279,-1.229,-1.2301,-1.231,-1.2321,-1.2333,-1.2349,-1.2356,-1.237,-1.2384,-1.2404,-1.2413,-1.2423,-1.2425,-1.2427,-1.2427,-1.2428,-1.2426,-1.2422,-1.2426,-1.2426,-1.2426,-1.2426,-1.2426,0,-1.2243,-1.2254,-1.2266,-1.2284,-1.2294,-1.23,-1.2314,-1.2322,-1.2334,-1.2347,-1.2358,-1.2373,-1.2386,-1.24,-1.2413,-1.2418,-1.2422,-1.2421,-1.2421,-1.2423,-1.2424,-1.2422,-1.2418,-1.2418,-1.2418,-1.2418,-1.2418,-1.2418,-1.2245,-1.2259,-1.2267,-1.2285,-1.2295,-1.2309,-1.2316,-1.2326,-1.2336,-1.2353,-1.2364,-1.2372,-1.2385,-1.2399,-1.2411,-1.2414,-1.2418,-1.2417,-1.2421,-1.2422,-1.2423,-1.2423,-1.2421,-1.2417,-1.2417,-1.2419,-1.2419,-1.2419]}]]